Погода в Новолеушковской

Россия / Краснодарский край     46°00′00″N   39°59′15″E
темп.,
°C
ветер,
м/с
пор.,
м/с
влажн.,
%
обл.,
%
осадки,
мм/ч
давл.,
гПа
погр.,
м
19 сентября, вс
вс1900:00+18юв1156100 0.0 101311
03:00+18вюв225298 0.0 101329
06:00+18юв3663100 0.0 1013145
09:00+21юв5756100 0.0 1012434
12:00+25ю3640100 0.1 10121473
15:00+28ююз6829100 0.1 10112697
18:00+23юз4848100 0.0 1011540
21:00+18ю3979100 1.1 1012436
20 сентября, пн
пн2000:00+19ююз61370100 3.6 1011848
03:00+18ююз5138529 4.2 1011589
06:00+17юз511903 0.9 1011331
09:00+20зюз68695 2.1 1012497
12:00+24зюз564468 0.8 10121661
15:00+24юз5638100 0.8 10111794
18:00+22зсз124681 0.0 101240
21:00+19зюз46516 0.0 1013150
21 сентября, вт
вт2100:00+17юз3869100 0.0 1014273
03:00+16юз38780 0.0 1014265
06:00+15з368499 0.0 1015198
09:00+17зсз3451100 0.0 1015597
12:00+21зсз2336100 0.0 10141099
15:00+20сз3338100 0.0 1013606
18:00+13сз5682100 1.6 1014299
21:00+13ссз3389100 7.1 1014358
22 сентября, ср
ср2200:00+13з3484100 0.6 1014396
03:00+13зсз4678100 1.3 1014666
06:00+11зсз368012 0.1 1015208
09:00+13зсз456444 0.1 1015783
12:00+14з4556100 0.0 10141383
15:00+14зсз3454100 0.0 10141454
18:00+14ссз2354100 0.0 1014419
21:00+13с235859 0.0 1014247
23 сентября, чт
чт2300:00+11всв006469 0.0 101440
03:00+10сз00685 0.0 101310
06:00+9в227059 0.0 101312
09:00+13вюв2358100 0.0 1012623
12:00+16вюв2344100 0.0 10111423
15:00+18в2340100 0.0 10101795
18:00+17в2451100 0.0 1009169
21:00+13юв3476100 0.6 1010336